Time,TemperatureF,DewpointF,PressureIn,WindDirection,WindDirectionDegrees,WindSpeedMPH,WindSpeedGustMPH,Humidity,HourlyPrecipIn,Conditions,Clouds,dailyrainin,SolarRadiationWatts/m^2,SoftwareType,DateUTC
2013-01-17 00:04:00,38.2,34.4,30.12,NNW,334,4.6,5.8,86,0.00,CLR,,0.00,0.0,WeatherDisplay:10.37,2013-01-17 06:04:00,
2013-01-17 00:09:00,38.1,34.3,30.12,NNW,331,5.8,5.8,86,0.00,CLR,,0.00,0.0,WeatherDisplay:10.37,2013-01-17 06:09:00,
2013-01-17 00:14:00,38.0,34.2,30.13,NW,322,3.5,3.5,86,0.00,CLR,,0.00,0.0,WeatherDisplay:10.37,2013-01-17 06:14:00,
2013-01-17 00:19:00,37.9,34.1,30.13,WNW,301,10.4,10.4,86,0.00,CLR,,0.00,0.0,WeatherDisplay:10.37,2013-01-17 06:19:00,
2013-01-17 00:24:00,37.9,34.1,30.14,NNW,340,6.9,6.9,86,0.00,CLR,,0.00,0.0,WeatherDisplay:10.37,2013-01-17 06:24:00,
2013-01-17 00:29:00,37.8,34.0,30.14,NW,307,9.2,9.2,86,0.00,CLR,,0.00,0.0,WeatherDisplay:10.37,2013-01-17 06:29:00,
2013-01-17 00:34:00,37.7,33.9,30.14,NNW,328,4.6,4.6,86,0.00,CLR,,0.00,0.0,WeatherDisplay:10.37,2013-01-17 06:34:00,
2013-01-17 00:39:00,37.6,33.5,30.15,NNW,346,4.6,4.6,85,0.00,CLR,,0.00,0.0,WeatherDisplay:10.37,2013-01-17 06:39:00,
2013-01-17 00:44:00,37.5,33.4,30.15,NNW,333,3.5,3.5,85,0.00,CLR,,0.00,0.0,WeatherDisplay:10.37,2013-01-17 06:44:00,
2013-01-17 00:49:00,37.4,33.0,30.16,NNW,339,10.4,10.4,84,0.00,CLR,,0.00,0.0,WeatherDisplay:10.37,2013-01-17 06:49:00,
2013-01-17 00:54:00,37.3,32.9,30.16,WNW,302,9.2,9.2,84,0.00,CLR,,0.00,0.0,WeatherDisplay:10.37,2013-01-17 06:54:00,
2013-01-17 00:59:00,37.2,32.8,30.16,NNW,332,5.8,5.8,84,0.00,CLR,,0.00,0.0,WeatherDisplay:10.37,2013-01-17 06:59:00,
2013-01-17 01:04:00,37.1,32.4,30.16,NW,314,6.9,6.9,83,0.00,CLR,,0.00,0.0,WeatherDisplay:10.37,2013-01-17 07:04:00,
2013-01-17 01:09:00,37.1,32.4,30.17,NW,325,5.8,5.8,83,0.00,CLR,,0.00,0.0,WeatherDisplay:10.37,2013-01-17 07:09:00,
2013-01-17 01:14:00,37.0,32.3,30.17,NNW,328,5.8,5.8,83,0.00,CLR,,0.00,0.0,WeatherDisplay:10.37,2013-01-17 07:14:00,
2013-01-17 01:19:00,36.9,32.2,30.17,NW,311,3.5,3.5,83,0.00,CLR,,0.00,0.0,WeatherDisplay:10.37,2013-01-17 07:19:00,
2013-01-17 01:24:00,36.8,31.8,30.17,NW,313,4.6,4.6,82,0.00,CLR,,0.00,0.0,WeatherDisplay:10.37,2013-01-17 07:24:00,
2013-01-17 01:29:00,36.8,31.8,30.18,WNW,298,4.6,4.6,82,0.00,CLR,,0.00,0.0,WeatherDisplay:10.37,2013-01-17 07:29:00,
2013-01-17 01:34:00,36.7,31.7,30.18,NNW,335,10.4,10.4,82,0.00,CLR,,0.00,0.0,WeatherDisplay:10.37,2013-01-17 07:34:00,
2013-01-17 01:39:00,36.6,31.3,30.18,WNW,302,10.4,10.4,81,0.00,CLR,,0.00,0.0,WeatherDisplay:10.37,2013-01-17 07:39:00,
2013-01-17 01:44:00,36.6,31.3,30.18,NW,314,5.8,5.8,81,0.00,CLR,,0.00,0.0,WeatherDisplay:10.37,2013-01-17 07:44:00,
2013-01-17 01:49:00,36.5,31.2,30.18,WNW,302,5.0,5.0,81,0.00,CLR,,0.00,0.0,WeatherDisplay:10.37,2013-01-17 07:49:00,
2013-01-17 01:54:00,36.5,31.2,30.19,NW,317,4.6,4.6,81,0.00,CLR,,0.00,0.0,WeatherDisplay:10.37,2013-01-17 07:54:00,
2013-01-17 01:59:00,36.4,31.1,30.19,NW,322,6.9,6.9,81,0.00,CLR,,0.00,0.0,WeatherDisplay:10.37,2013-01-17 07:59:00,
2013-01-17 02:04:00,36.2,30.9,30.19,NW,309,4.6,4.6,81,0.00,CLR,,0.00,0.0,WeatherDisplay:10.37,2013-01-17 08:04:00,
2013-01-17 02:09:00,36.2,30.9,30.19,NW,326,4.6,4.6,81,0.00,CLR,,0.00,0.0,WeatherDisplay:10.37,2013-01-17 08:09:00,
2013-01-17 02:14:00,36.1,30.5,30.19,NW,322,6.9,6.9,80,0.00,CLR,,0.00,0.0,WeatherDisplay:10.37,2013-01-17 08:14:00,
2013-01-17 02:19:00,35.9,30.6,30.19,NW,326,10.4,10.4,81,0.00,CLR,,0.00,0.0,WeatherDisplay:10.37,2013-01-17 08:19:00,
2013-01-17 02:24:00,35.7,30.4,30.20,NNW,344,5.8,5.8,81,0.00,CLR,,0.00,0.0,WeatherDisplay:10.37,2013-01-17 08:24:00,
2013-01-17 02:29:00,35.5,30.2,30.20,NNW,331,4.0,4.0,81,0.00,CLR,,0.00,0.0,WeatherDisplay:10.37,2013-01-17 08:29:00,
2013-01-17 02:34:00,35.3,30.1,30.20,NNW,331,5.8,5.8,81,0.00,CLR,,0.00,0.0,WeatherDisplay:10.37,2013-01-17 08:34:00,
2013-01-17 02:39:00,35.1,29.9,30.20,NNW,330,4.6,4.6,81,0.00,CLR,,0.00,0.0,WeatherDisplay:10.37,2013-01-17 08:39:00,
2013-01-17 02:44:00,34.9,29.7,30.21,NNW,337,3.5,3.5,81,0.00,CLR,,0.00,0.0,WeatherDisplay:10.37,2013-01-17 08:44:00,
2013-01-17 02:49:00,34.6,29.4,30.21,North,360,10.4,10.4,81,0.00,CLR,,0.00,0.0,WeatherDisplay:10.37,2013-01-17 08:49:00,
2013-01-17 02:54:00,34.4,29.2,30.22,NNW,342,11.5,11.5,81,0.00,CLR,,0.00,0.0,WeatherDisplay:10.37,2013-01-17 08:54:00,
2013-01-17 02:59:00,34.1,28.9,30.22,NW,307,3.5,3.5,81,0.00,CLR,,0.00,0.0,WeatherDisplay:10.37,2013-01-17 08:59:00,
2013-01-17 03:04:00,33.6,28.4,30.22,NW,313,6.9,6.9,81,0.00,CLR,,0.00,0.0,WeatherDisplay:10.37,2013-01-17 09:04:00,
2013-01-17 03:09:00,33.2,28.0,30.23,NNW,334,15.0,15.0,81,0.00,CLR,,0.00,0.0,WeatherDisplay:10.37,2013-01-17 09:09:00,
2013-01-17 03:14:00,32.8,27.6,30.23,NW,315,10.4,10.4,81,0.00,CLR,,0.00,0.0,WeatherDisplay:10.37,2013-01-17 09:14:00,
2013-01-17 03:19:00,32.4,27.2,30.23,NNW,331,10.4,10.4,81,0.00,CLR,,0.00,0.0,WeatherDisplay:10.37,2013-01-17 09:19:00,
2013-01-17 03:24:00,32.0,26.8,30.24,NW,311,8.1,8.1,81,0.00,CLR,,0.00,0.0,WeatherDisplay:10.37,2013-01-17 09:24:00,
2013-01-17 03:29:00,31.7,26.5,30.24,NW,321,11.5,11.5,81,0.00,CLR,,0.00,0.0,WeatherDisplay:10.37,2013-01-17 09:29:00,
2013-01-17 03:34:00,31.5,26.3,30.24,NW,319,10.4,10.4,81,0.00,CLR,,0.00,0.0,WeatherDisplay:10.37,2013-01-17 09:34:00,
2013-01-17 03:39:00,31.2,26.0,30.24,NW,324,6.9,6.9,81,0.00,CLR,,0.00,0.0,WeatherDisplay:10.37,2013-01-17 09:39:00,
2013-01-17 03:44:00,31.0,25.9,30.24,NNW,331,9.2,9.2,81,0.00,CLR,,0.00,0.0,WeatherDisplay:10.37,2013-01-17 09:44:00,
2013-01-17 03:49:00,30.7,25.6,30.24,NW,322,6.9,6.9,81,0.00,CLR,,0.00,0.0,WeatherDisplay:10.37,2013-01-17 09:49:00,
2013-01-17 03:54:00,30.5,25.4,30.24,NNW,329,5.0,5.0,81,0.00,CLR,,0.00,0.0,WeatherDisplay:10.37,2013-01-17 09:54:00,
2013-01-17 03:59:00,30.3,25.2,30.25,NW,317,6.9,6.9,81,0.00,CLR,,0.00,0.0,WeatherDisplay:10.37,2013-01-17 09:59:00,
2013-01-17 04:04:00,30.1,25.0,30.25,NW,323,9.2,9.2,81,0.00,CLR,,0.00,0.0,WeatherDisplay:10.37,2013-01-17 10:04:00,
2013-01-17 04:09:00,30.0,24.9,30.25,NNW,336,5.8,5.8,81,0.00,CLR,,0.00,0.0,WeatherDisplay:10.37,2013-01-17 10:09:00,
2013-01-17 04:14:00,29.8,24.7,30.25,NW,319,3.5,3.5,81,0.00,CLR,,0.00,0.0,WeatherDisplay:10.37,2013-01-17 10:14:00,
2013-01-17 04:19:00,29.6,24.8,30.26,NW,319,5.8,5.8,82,0.00,CLR,,0.00,0.0,WeatherDisplay:10.37,2013-01-17 10:19:00,
2013-01-17 04:24:00,29.4,24.3,30.26,NW,313,6.9,6.9,81,0.00,CLR,,0.00,0.0,WeatherDisplay:10.37,2013-01-17 10:24:00,
2013-01-17 04:29:00,29.2,24.4,30.27,NNW,327,3.5,4.4,82,0.00,CLR,,0.00,0.0,WeatherDisplay:10.37,2013-01-17 10:29:00,
2013-01-17 04:34:00,29.0,24.2,30.27,NW,317,10.4,10.4,82,0.00,CLR,,0.00,0.0,WeatherDisplay:10.37,2013-01-17 10:34:00,
2013-01-17 04:39:00,28.9,24.1,30.28,NW,323,6.9,6.9,82,0.00,CLR,,0.00,0.0,WeatherDisplay:10.37,2013-01-17 10:39:00,
2013-01-17 04:44:00,28.8,23.7,30.28,NNW,346,11.5,11.5,81,0.00,CLR,,0.00,0.0,WeatherDisplay:10.37,2013-01-17 10:44:00,
2013-01-17 04:49:00,28.7,23.6,30.28,NW,324,5.8,5.8,81,0.00,CLR,,0.00,0.0,WeatherDisplay:10.37,2013-01-17 10:49:00,
2013-01-17 04:55:00,28.5,23.4,30.28,NNW,340,6.9,6.9,81,0.00,CLR,,0.00,0.0,WeatherDisplay:10.37,2013-01-17 10:55:00,
2013-01-17 05:00:00,28.4,23.3,30.28,NNW,327,6.9,6.9,81,0.00,CLR,,0.00,0.0,WeatherDisplay:10.37,2013-01-17 11:00:00,
2013-01-17 05:05:00,28.3,23.2,30.29,NNW,327,10.4,10.4,81,0.00,CLR,,0.00,0.0,WeatherDisplay:10.37,2013-01-17 11:05:00,
2013-01-17 05:10:00,28.1,23.0,30.29,NNW,329,3.5,3.5,81,0.00,CLR,,0.00,0.0,WeatherDisplay:10.37,2013-01-17 11:10:00,
2013-01-17 05:15:00,28.0,22.9,30.29,NNW,342,9.2,9.2,81,0.00,CLR,,0.00,0.0,WeatherDisplay:10.37,2013-01-17 11:15:00,
2013-01-17 05:20:00,27.8,22.7,30.29,NNW,334,5.8,5.8,81,0.00,CLR,,0.00,0.0,WeatherDisplay:10.37,2013-01-17 11:20:00,
2013-01-17 05:25:00,27.6,22.5,30.30,NW,322,6.9,6.9,81,0.00,CLR,,0.00,0.0,WeatherDisplay:10.37,2013-01-17 11:25:00,
2013-01-17 05:30:00,27.5,22.7,30.30,NW,317,5.8,5.8,82,0.00,CLR,,0.00,0.0,WeatherDisplay:10.37,2013-01-17 11:30:00,
2013-01-17 05:35:00,27.3,22.2,30.30,NW,319,5.0,5.0,81,0.00,CLR,,0.00,0.0,WeatherDisplay:10.37,2013-01-17 11:35:00,
2013-01-17 05:40:00,27.2,22.1,30.31,WNW,303,3.5,3.5,81,0.00,CLR,,0.00,0.0,WeatherDisplay:10.37,2013-01-17 11:40:00,
2013-01-17 05:45:00,27.0,21.9,30.31,NNW,338,3.5,3.5,81,0.00,CLR,,0.00,0.0,WeatherDisplay:10.37,2013-01-17 11:45:00,
2013-01-17 05:50:00,26.8,21.8,30.32,NW,316,6.9,6.9,81,0.00,CLR,,0.00,0.0,WeatherDisplay:10.37,2013-01-17 11:50:00,
2013-01-17 05:55:00,26.6,21.6,30.32,NW,326,3.0,3.0,81,0.00,CLR,,0.00,0.0,WeatherDisplay:10.37,2013-01-17 11:55:00,
2013-01-17 06:00:00,26.4,21.1,30.32,NW,313,8.1,8.1,80,0.00,CLR,,0.00,0.0,WeatherDisplay:10.37,2013-01-17 12:00:00,
2013-01-17 06:05:00,26.2,20.9,30.33,NNW,336,4.0,4.0,80,0.00,CLR,,0.00,0.0,WeatherDisplay:10.37,2013-01-17 12:05:00,
2013-01-17 06:10:00,26.2,20.9,30.33,NW,323,3.5,3.5,80,0.00,CLR,,0.00,0.0,WeatherDisplay:10.37,2013-01-17 12:10:00,
2013-01-17 06:15:00,26.0,20.4,30.33,NNW,327,6.9,6.9,79,0.00,CLR,,0.00,0.0,WeatherDisplay:10.37,2013-01-17 12:15:00,
2013-01-17 06:20:00,25.8,20.2,30.33,NNW,333,2.3,2.3,79,0.00,CLR,,0.00,0.0,WeatherDisplay:10.37,2013-01-17 12:20:00,
2013-01-17 06:25:00,25.7,19.8,30.34,NW,323,3.5,3.5,78,0.00,CLR,,0.00,0.0,WeatherDisplay:10.37,2013-01-17 12:25:00,
2013-01-17 06:30:00,25.5,19.6,30.34,WNW,299,6.9,6.9,78,0.00,CLR,,0.00,0.0,WeatherDisplay:10.37,2013-01-17 12:30:00,
2013-01-17 06:35:00,25.4,19.5,30.34,NW,324,4.0,4.0,78,0.00,CLR,,0.00,0.0,WeatherDisplay:10.37,2013-01-17 12:35:00,
2013-01-17 06:40:00,25.3,19.1,30.34,NW,318,5.8,5.8,77,0.00,CLR,,0.00,0.0,WeatherDisplay:10.37,2013-01-17 12:40:00,
2013-01-17 06:45:00,25.2,19.0,30.34,NW,326,3.5,3.5,77,0.00,CLR,,0.00,0.0,WeatherDisplay:10.37,2013-01-17 12:45:00,
2013-01-17 06:50:00,25.0,18.8,30.35,NW,309,3.5,3.5,77,0.00,CLR,,0.00,0.0,WeatherDisplay:10.37,2013-01-17 12:50:00,
2013-01-17 06:55:00,24.9,18.4,30.35,NW,309,3.5,3.5,76,0.00,CLR,,0.00,0.0,WeatherDisplay:10.37,2013-01-17 12:55:00,
2013-01-17 07:00:00,24.7,18.2,30.35,NW,309,4.6,4.6,76,0.00,CLR,,0.00,0.0,WeatherDisplay:10.37,2013-01-17 13:00:00,
2013-01-17 07:05:00,24.6,18.1,30.35,NW,325,9.2,9.2,76,0.00,OVC,,0.00,0.0,WeatherDisplay:10.37,2013-01-17 13:05:00,
2013-01-17 07:10:00,24.4,17.6,30.35,NW,310,3.5,3.5,75,0.00,OVC,,0.00,0.0,WeatherDisplay:10.37,2013-01-17 13:10:00,
2013-01-17 07:15:00,24.3,17.5,30.36,NW,311,3.5,3.5,75,0.00,OVC,,0.00,0.0,WeatherDisplay:10.37,2013-01-17 13:15:00,
2013-01-17 07:20:00,24.1,17.3,30.36,NW,311,1.2,0.0,75,0.00,OVC,,0.00,0.0,WeatherDisplay:10.37,2013-01-17 13:20:00,
2013-01-17 07:25:00,24.0,16.9,30.36,NNW,336,4.6,4.6,74,0.00,OVC,,0.00,5.0,WeatherDisplay:10.37,2013-01-17 13:25:00,
2013-01-17 07:30:00,23.9,16.8,30.37,NNW,336,2.3,0.0,74,0.00,SCT,,0.00,7.0,WeatherDisplay:10.37,2013-01-17 13:30:00,
2013-01-17 07:35:00,23.8,16.7,30.37,NNW,336,3.5,3.5,74,0.00,BKN,,0.00,11.0,WeatherDisplay:10.37,2013-01-17 13:35:00,
2013-01-17 07:40:00,23.6,16.2,30.37,NNW,336,2.3,0.0,73,0.00,OVC,,0.00,11.0,WeatherDisplay:10.37,2013-01-17 13:40:00,
2013-01-17 07:45:00,23.5,16.1,30.36,NNW,336,0.0,0.0,73,0.00,OVC,,0.00,14.0,WeatherDisplay:10.37,2013-01-17 13:45:00,
2013-01-17 07:50:00,23.5,16.1,30.36,NNW,336,0.0,0.0,73,0.00,OVC,,0.00,23.0,WeatherDisplay:10.37,2013-01-17 13:50:00,
2013-01-17 07:55:00,23.4,16.0,30.36,NNW,336,0.0,0.0,73,0.00,OVC,,0.00,16.0,WeatherDisplay:10.37,2013-01-17 13:55:00,
2013-01-17 08:00:00,23.4,16.0,30.37,NNW,336,0.0,0.0,73,0.00,OVC,,0.00,18.0,WeatherDisplay:10.37,2013-01-17 14:00:00,
2013-01-17 08:05:00,23.3,15.9,30.37,NNW,336,0.0,0.0,73,0.00,OVC,,0.00,19.0,WeatherDisplay:10.37,2013-01-17 14:05:00,
2013-01-17 08:10:00,23.3,16.2,30.37,NNW,336,0.0,0.7,74,0.00,OVC,,0.00,26.0,WeatherDisplay:10.37,2013-01-17 14:10:00,
2013-01-17 08:15:00,23.4,16.3,30.37,NNW,336,0.0,0.0,74,0.00,BKN,,0.00,63.0,WeatherDisplay:10.37,2013-01-17 14:15:00,
2013-01-17 08:20:00,23.5,16.1,30.38,NNW,336,0.0,0.0,73,0.00,OVC,,0.00,47.0,WeatherDisplay:10.37,2013-01-17 14:20:00,
2013-01-17 08:25:00,23.7,16.3,30.38,NNW,332,5.8,5.8,73,0.00,OVC,,0.00,70.0,WeatherDisplay:10.37,2013-01-17 14:25:00,
2013-01-17 08:30:00,23.8,16.1,30.38,NNW,331,3.5,3.5,72,0.00,OVC,,0.00,70.0,WeatherDisplay:10.37,2013-01-17 14:30:00,
2013-01-17 08:35:00,23.9,15.9,30.39,NNW,340,6.9,6.9,71,0.00,OVC,,0.00,54.0,WeatherDisplay:10.37,2013-01-17 14:35:00,
2013-01-17 08:40:00,24.1,16.1,30.39,NW,323,6.9,6.9,71,0.00,BKN,,0.00,100.0,WeatherDisplay:10.37,2013-01-17 14:40:00,
2013-01-17 08:45:00,24.3,15.9,30.39,NW,323,11.5,11.5,70,0.00,OVC,,0.00,113.0,WeatherDisplay:10.37,2013-01-17 14:45:00,
2013-01-17 08:50:00,24.4,15.7,30.39,NNW,333,12.0,12.0,69,0.00,BKN,,0.00,109.0,WeatherDisplay:10.37,2013-01-17 14:50:00,
2013-01-17 08:55:00,24.5,15.4,30.40,NNW,337,11.5,11.5,68,0.00,OVC,,0.00,107.0,WeatherDisplay:10.37,2013-01-17 14:55:00,
2013-01-17 09:00:00,24.7,15.6,30.40,NNW,336,4.6,4.6,68,0.00,OVC,,0.00,54.0,WeatherDisplay:10.37,2013-01-17 15:00:00,
2013-01-17 09:05:00,24.9,15.5,30.40,NNW,333,9.2,9.2,67,0.00,OVC,,0.00,95.0,WeatherDisplay:10.37,2013-01-17 15:05:00,
2013-01-17 09:10:00,25.1,15.7,30.40,North,355,5.8,5.8,67,0.00,OVC,,0.00,105.0,WeatherDisplay:10.37,2013-01-17 15:10:00,
2013-01-17 09:15:00,25.3,15.5,30.40,NNW,342,5.8,5.8,66,0.00,OVC,,0.00,160.0,WeatherDisplay:10.37,2013-01-17 15:15:00,
2013-01-17 09:20:00,25.4,15.6,30.41,NNW,347,4.6,4.6,66,0.00,BKN,,0.00,211.0,WeatherDisplay:10.37,2013-01-17 15:20:00,
2013-01-17 09:25:00,25.6,15.5,30.41,NW,311,10.4,10.4,65,0.00,BKN,,0.00,121.0,WeatherDisplay:10.37,2013-01-17 15:25:00,
2013-01-17 09:30:00,25.8,15.3,30.41,NW,317,10.4,10.4,64,0.00,BKN,,0.00,186.0,WeatherDisplay:10.37,2013-01-17 15:30:00,
2013-01-17 09:35:00,26.0,15.1,30.42,NNW,329,5.8,5.8,63,0.00,OVC,,0.00,169.0,WeatherDisplay:10.37,2013-01-17 15:35:00,
2013-01-17 09:40:00,26.2,15.3,30.42,WNW,291,11.5,11.5,63,0.00,BKN,,0.00,211.0,WeatherDisplay:10.37,2013-01-17 15:40:00,
2013-01-17 09:46:00,26.3,14.7,30.42,WNW,300,10.4,10.4,61,0.00,SCT,,0.00,272.0,WeatherDisplay:10.37,2013-01-17 15:46:00,
2013-01-17 09:51:00,26.5,14.9,30.42,NW,316,3.5,6.1,61,0.00,FEW,,0.00,387.0,WeatherDisplay:10.37,2013-01-17 15:51:00,
2013-01-17 09:56:00,26.7,14.3,30.43,NNW,329,11.5,11.5,59,0.00,FEW,,0.00,410.0,WeatherDisplay:10.37,2013-01-17 15:56:00,
2013-01-17 10:01:00,26.8,14.0,30.43,NNW,331,12.7,12.7,58,0.00,FEW,,0.00,418.0,WeatherDisplay:10.37,2013-01-17 16:01:00,
2013-01-17 10:06:00,27.0,13.8,30.43,NW,315,11.5,11.5,57,0.00,CLR,,0.00,427.0,WeatherDisplay:10.37,2013-01-17 16:06:00,
2013-01-17 10:11:00,27.2,14.0,30.43,NNW,333,10.4,10.4,57,0.00,CLR,,0.00,436.0,WeatherDisplay:10.37,2013-01-17 16:11:00,
2013-01-17 10:16:00,27.4,14.1,30.44,NW,306,11.0,11.0,57,0.00,FEW,,0.00,443.0,WeatherDisplay:10.37,2013-01-17 16:16:00,
2013-01-17 10:21:00,27.5,14.2,30.44,WNW,303,11.5,11.5,57,0.00,FEW,,0.00,452.0,WeatherDisplay:10.37,2013-01-17 16:21:00,
2013-01-17 10:26:00,27.6,13.9,30.44,WNW,295,10.4,10.4,56,0.00,FEW,,0.00,457.0,WeatherDisplay:10.37,2013-01-17 16:26:00,
2013-01-17 10:31:00,27.9,15.0,30.44,WNW,288,4.6,4.6,58,0.00,FEW,,0.00,461.0,WeatherDisplay:10.37,2013-01-17 16:31:00,
2013-01-17 10:36:00,27.9,13.8,30.43,NW,311,11.5,11.5,55,0.00,CLR,,0.00,478.0,WeatherDisplay:10.37,2013-01-17 16:36:00,
2013-01-17 10:41:00,27.9,14.2,30.43,WNW,291,6.9,6.9,56,0.00,FEW,,0.00,476.0,WeatherDisplay:10.37,2013-01-17 16:41:00,
2013-01-17 10:46:00,28.0,14.7,30.43,NW,317,4.6,4.6,57,0.00,FEW,,0.00,478.0,WeatherDisplay:10.37,2013-01-17 16:46:00,
2013-01-17 10:51:00,28.4,15.9,30.43,WNW,296,7.0,7.0,59,0.00,FEW,,0.00,487.0,WeatherDisplay:10.37,2013-01-17 16:51:00,
2013-01-17 10:56:00,28.7,16.2,30.43,NNW,331,3.5,3.5,59,0.00,FEW,,0.00,490.0,WeatherDisplay:10.37,2013-01-17 16:56:00,
2013-01-17 11:01:00,29.0,15.7,30.43,NW,310,5.8,5.8,57,0.00,FEW,,0.00,497.0,WeatherDisplay:10.37,2013-01-17 17:01:00,
2013-01-17 11:06:00,29.1,15.7,30.43,NW,313,6.9,6.9,57,0.00,FEW,,0.00,503.0,WeatherDisplay:10.37,2013-01-17 17:06:00,
2013-01-17 11:11:00,29.2,15.8,30.42,WNW,298,5.8,5.8,57,0.00,FEW,,0.00,504.0,WeatherDisplay:10.37,2013-01-17 17:11:00,
2013-01-17 11:16:00,29.4,16.4,30.42,WNW,299,9.2,9.2,58,0.00,FEW,,0.00,513.0,WeatherDisplay:10.37,2013-01-17 17:16:00,
2013-01-17 11:21:00,29.5,16.5,30.42,NW,313,9.0,9.0,58,0.00,FEW,,0.00,515.0,WeatherDisplay:10.37,2013-01-17 17:21:00,
2013-01-17 11:26:00,29.7,16.3,30.43,NNW,337,9.2,9.2,57,0.00,FEW,,0.00,515.0,WeatherDisplay:10.37,2013-01-17 17:26:00,
2013-01-17 11:31:00,29.8,16.4,30.42,WNW,299,8.1,8.1,57,0.00,FEW,,0.00,520.0,WeatherDisplay:10.37,2013-01-17 17:31:00,
2013-01-17 11:36:00,29.9,16.5,30.42,WNW,290,3.5,3.5,57,0.00,FEW,,0.00,522.0,WeatherDisplay:10.37,2013-01-17 17:36:00,
2013-01-17 11:41:00,30.2,16.4,30.42,NW,323,8.1,8.1,56,0.00,FEW,,0.00,527.0,WeatherDisplay:10.37,2013-01-17 17:41:00,
2013-01-17 11:46:00,30.5,16.2,30.42,NW,308,9.2,9.2,55,0.00,FEW,,0.00,524.0,WeatherDisplay:10.37,2013-01-17 17:46:00,
2013-01-17 11:51:00,30.6,16.3,30.42,North,360,9.2,9.2,55,0.00,FEW,,0.00,529.0,WeatherDisplay:10.37,2013-01-17 17:51:00,
2013-01-17 11:56:00,30.8,16.5,30.41,NNW,339,12.7,12.7,55,0.00,FEW,,0.00,531.0,WeatherDisplay:10.37,2013-01-17 17:56:00,
2013-01-17 12:01:00,31.0,16.3,30.41,NNW,328,11.5,11.5,54,0.00,FEW,,0.00,533.0,WeatherDisplay:10.37,2013-01-17 18:01:00,
2013-01-17 12:06:00,31.1,16.4,30.41,NNW,327,13.8,13.8,54,0.00,FEW,,0.00,533.0,WeatherDisplay:10.37,2013-01-17 18:06:00,
2013-01-17 12:11:00,31.4,16.7,30.41,NNW,336,11.5,11.5,54,0.00,FEW,,0.00,534.0,WeatherDisplay:10.37,2013-01-17 18:11:00,
2013-01-17 12:16:00,31.6,16.4,30.41,WNW,294,12.7,12.7,53,0.00,FEW,,0.00,533.0,WeatherDisplay:10.37,2013-01-17 18:16:00,
2013-01-17 12:21:00,31.7,16.1,30.41,NW,306,12.7,12.7,52,0.00,FEW,,0.00,533.0,WeatherDisplay:10.37,2013-01-17 18:21:00,
2013-01-17 12:26:00,31.7,16.1,30.41,NW,304,10.4,10.4,52,0.00,FEW,,0.00,529.0,WeatherDisplay:10.37,2013-01-17 18:26:00,
2013-01-17 12:31:00,32.0,16.8,30.41,NW,315,5.8,5.8,53,0.00,FEW,,0.00,529.0,WeatherDisplay:10.37,2013-01-17 18:31:00,
2013-01-17 12:36:00,32.3,16.6,30.40,WNW,293,3.5,3.5,52,0.00,FEW,,0.00,529.0,WeatherDisplay:10.37,2013-01-17 18:36:00,
2013-01-17 12:41:00,32.7,17.0,30.40,NNW,329,5.8,5.8,52,0.00,FEW,,0.00,527.0,WeatherDisplay:10.37,2013-01-17 18:41:00,
2013-01-17 12:46:00,32.8,16.2,30.40,West,272,6.9,6.9,50,0.00,FEW,,0.00,524.0,WeatherDisplay:10.37,2013-01-17 18:46:00,
2013-01-17 12:51:00,33.1,16.9,30.40,NW,310,6.9,6.9,51,0.00,FEW,,0.00,520.0,WeatherDisplay:10.37,2013-01-17 18:51:00,
2013-01-17 12:56:00,33.2,17.0,30.40,NW,311,9.2,9.2,51,0.00,FEW,,0.00,515.0,WeatherDisplay:10.37,2013-01-17 18:56:00,
2013-01-17 13:01:00,33.2,16.5,30.40,WNW,297,5.8,5.8,50,0.00,FEW,,0.00,510.0,WeatherDisplay:10.37,2013-01-17 19:01:00,
2013-01-17 13:06:00,33.2,16.5,30.40,North,350,10.4,10.4,50,0.00,FEW,,0.00,504.0,WeatherDisplay:10.37,2013-01-17 19:06:00,
2013-01-17 13:11:00,33.2,16.5,30.40,NNW,329,5.8,5.8,50,0.00,FEW,,0.00,499.0,WeatherDisplay:10.37,2013-01-17 19:11:00,
2013-01-17 13:16:00,33.6,16.9,30.40,WNW,296,4.6,4.6,50,0.00,FEW,,0.00,492.0,WeatherDisplay:10.37,2013-01-17 19:16:00,
2013-01-17 13:21:00,33.8,17.1,30.39,WNW,293,6.0,6.0,50,0.00,FEW,,0.00,483.0,WeatherDisplay:10.37,2013-01-17 19:21:00,
2013-01-17 13:26:00,33.8,17.1,30.40,NNW,348,6.9,6.9,50,0.00,FEW,,0.00,482.0,WeatherDisplay:10.37,2013-01-17 19:26:00,
2013-01-17 13:31:00,33.9,17.2,30.39,NW,323,12.7,12.7,50,0.00,FEW,,0.00,476.0,WeatherDisplay:10.37,2013-01-17 19:31:00,
2013-01-17 13:36:00,33.9,16.7,30.39,NNW,341,13.8,13.8,49,0.00,FEW,,0.00,471.0,WeatherDisplay:10.37,2013-01-17 19:36:00,
2013-01-17 13:41:00,33.9,16.7,30.39,NNE,13,5.8,5.8,49,0.00,CLR,,0.00,506.0,WeatherDisplay:10.37,2013-01-17 19:41:00,
2013-01-17 13:46:00,34.0,17.3,30.39,NW,316,10.4,10.4,50,0.00,BKN,,0.00,218.0,WeatherDisplay:10.37,2013-01-17 19:46:00,
2013-01-17 13:51:00,33.8,17.6,30.39,NNW,333,9.2,9.2,51,0.00,FEW,,0.00,462.0,WeatherDisplay:10.37,2013-01-17 19:51:00,
2013-01-17 13:56:00,33.9,17.2,30.39,WNW,292,5.8,5.8,50,0.00,FEW,,0.00,443.0,WeatherDisplay:10.37,2013-01-17 19:56:00,
2013-01-17 14:01:00,33.9,17.7,30.39,WNW,295,4.6,4.6,51,0.00,FEW,,0.00,429.0,WeatherDisplay:10.37,2013-01-17 20:01:00,
2013-01-17 14:06:00,34.1,18.3,30.39,NNW,334,6.9,6.9,52,0.00,FEW,,0.00,422.0,WeatherDisplay:10.37,2013-01-17 20:06:00,
2013-01-17 14:11:00,34.2,17.9,30.39,NW,306,6.9,6.9,51,0.00,FEW,,0.00,410.0,WeatherDisplay:10.37,2013-01-17 20:11:00,
2013-01-17 14:16:00,34.2,17.5,30.39,WNW,290,10.4,10.4,50,0.00,FEW,,0.00,401.0,WeatherDisplay:10.37,2013-01-17 20:16:00,
2013-01-17 14:21:00,34.3,18.0,30.39,NW,305,6.9,6.9,51,0.00,FEW,,0.00,392.0,WeatherDisplay:10.37,2013-01-17 20:21:00,
2013-01-17 14:26:00,34.3,17.6,30.39,WNW,300,6.9,6.9,50,0.00,FEW,,0.00,380.0,WeatherDisplay:10.37,2013-01-17 20:26:00,
2013-01-17 14:31:00,33.9,17.2,30.39,West,263,11.5,11.5,50,0.00,FEW,,0.00,367.0,WeatherDisplay:10.37,2013-01-17 20:31:00,
2013-01-17 14:36:00,33.7,17.5,30.39,WNW,292,11.5,11.5,51,0.00,FEW,,0.00,359.0,WeatherDisplay:10.37,2013-01-17 20:36:00,
2013-01-17 14:41:00,33.7,17.5,30.39,WNW,294,6.9,6.9,51,0.00,FEW,,0.00,348.0,WeatherDisplay:10.37,2013-01-17 20:41:00,
2013-01-17 14:46:00,33.8,18.0,30.39,WNW,296,3.5,4.2,52,0.00,FEW,,0.00,334.0,WeatherDisplay:10.37,2013-01-17 20:46:00,
2013-01-17 14:52:00,34.0,18.2,30.39,West,273,10.4,10.4,52,0.00,FEW,,0.00,323.0,WeatherDisplay:10.37,2013-01-17 20:52:00,
2013-01-17 14:57:00,34.0,18.2,30.39,WNW,288,11.0,11.0,52,0.00,FEW,,0.00,311.0,WeatherDisplay:10.37,2013-01-17 20:57:00,
2013-01-17 15:02:00,33.9,18.1,30.39,WNW,295,5.8,5.8,52,0.00,FEW,,0.00,297.0,WeatherDisplay:10.37,2013-01-17 21:02:00,
2013-01-17 15:07:00,34.1,18.3,30.39,WNW,292,4.6,4.6,52,0.00,FEW,,0.00,285.0,WeatherDisplay:10.37,2013-01-17 21:07:00,
2013-01-17 15:12:00,34.1,18.3,30.40,WNW,283,5.8,5.8,52,0.00,FEW,,0.00,272.0,WeatherDisplay:10.37,2013-01-17 21:12:00,
2013-01-17 15:17:00,34.2,18.4,30.40,West,277,3.5,3.5,52,0.00,FEW,,0.00,258.0,WeatherDisplay:10.37,2013-01-17 21:17:00,
2013-01-17 15:22:00,34.1,18.3,30.40,WNW,290,8.1,8.1,52,0.00,FEW,,0.00,246.0,WeatherDisplay:10.37,2013-01-17 21:22:00,
2013-01-17 15:27:00,34.1,18.3,30.40,WNW,292,4.6,4.6,52,0.00,FEW,,0.00,234.0,WeatherDisplay:10.37,2013-01-17 21:27:00,
2013-01-17 15:32:00,34.4,19.0,30.40,WNW,292,8.1,8.1,53,0.00,FEW,,0.00,221.0,WeatherDisplay:10.37,2013-01-17 21:32:00,
2013-01-17 15:37:00,34.4,19.0,30.39,West,276,6.9,6.9,53,0.00,FEW,,0.00,207.0,WeatherDisplay:10.37,2013-01-17 21:37:00,
2013-01-17 15:42:00,34.1,19.2,30.40,WNW,286,6.0,6.0,54,0.00,FEW,,0.00,193.0,WeatherDisplay:10.37,2013-01-17 21:42:00,
2013-01-17 15:47:00,34.1,19.2,30.40,NW,316,5.8,5.8,54,0.00,SCT,,0.00,179.0,WeatherDisplay:10.37,2013-01-17 21:47:00,
2013-01-17 15:52:00,34.1,19.2,30.40,WSW,250,5.0,5.0,54,0.00,SCT,,0.00,167.0,WeatherDisplay:10.37,2013-01-17 21:52:00,
2013-01-17 15:57:00,34.0,19.1,30.40,WNW,284,4.6,4.6,54,0.00,SCT,,0.00,146.0,WeatherDisplay:10.37,2013-01-17 21:57:00,
2013-01-17 16:02:00,33.9,19.0,30.40,WNW,288,4.6,4.6,54,0.00,SCT,,0.00,130.0,WeatherDisplay:10.37,2013-01-17 22:02:00,
2013-01-17 16:07:00,33.8,20.6,30.40,WNW,286,6.9,6.9,58,0.00,SCT,,0.00,95.0,WeatherDisplay:10.37,2013-01-17 22:07:00,
2013-01-17 16:12:00,33.6,19.1,30.40,West,280,5.8,5.8,55,0.00,BKN,,0.00,69.0,WeatherDisplay:10.37,2013-01-17 22:12:00,
2013-01-17 16:17:00,33.5,19.5,30.40,WNW,295,6.0,6.0,56,0.00,BKN,,0.00,54.0,WeatherDisplay:10.37,2013-01-17 22:17:00,
2013-01-17 16:22:00,33.3,19.3,30.40,WNW,287,3.5,3.5,56,0.00,OVC,,0.00,39.0,WeatherDisplay:10.37,2013-01-17 22:22:00,
2013-01-17 16:27:00,33.1,19.1,30.40,WNW,288,5.8,5.8,56,0.00,BKN,,0.00,46.0,WeatherDisplay:10.37,2013-01-17 22:27:00,
2013-01-17 16:32:00,33.0,19.4,30.41,WNW,288,3.5,3.5,57,0.00,OVC,,0.00,32.0,WeatherDisplay:10.37,2013-01-17 22:32:00,
2013-01-17 16:37:00,32.9,19.3,30.41,WNW,288,3.5,3.5,57,0.00,OVC,,0.00,18.0,WeatherDisplay:10.37,2013-01-17 22:37:00,
2013-01-17 16:42:00,32.7,19.5,30.41,WNW,288,3.5,3.5,58,0.00,OVC,,0.00,18.0,WeatherDisplay:10.37,2013-01-17 22:42:00,
2013-01-17 16:47:00,32.5,19.3,30.41,West,265,4.6,4.6,58,0.00,OVC,,0.00,12.0,WeatherDisplay:10.37,2013-01-17 22:47:00,
2013-01-17 16:52:00,32.3,19.2,30.41,West,265,1.2,1.2,58,0.00,BKN,,0.00,9.0,WeatherDisplay:10.37,2013-01-17 22:52:00,
2013-01-17 16:57:00,32.1,19.0,30.41,West,265,3.0,3.0,58,0.00,OVC,,0.00,7.0,WeatherDisplay:10.37,2013-01-17 22:57:00,
2013-01-17 17:02:00,32.0,19.3,30.41,West,265,0.0,0.0,59,0.00,CLR,,0.00,5.0,WeatherDisplay:10.37,2013-01-17 23:02:00,
2013-01-17 17:07:00,31.9,19.2,30.42,West,265,2.3,2.3,59,0.00,CLR,,0.00,0.0,WeatherDisplay:10.37,2013-01-17 23:07:00,
2013-01-17 17:12:00,31.7,19.0,30.42,West,265,0.0,0.0,59,0.00,CLR,,0.00,0.0,WeatherDisplay:10.37,2013-01-17 23:12:00,
2013-01-17 17:17:00,31.5,19.2,30.42,West,265,1.0,1.0,60,0.00,CLR,,0.00,0.0,WeatherDisplay:10.37,2013-01-17 23:17:00,
2013-01-17 17:22:00,31.4,19.1,30.42,West,265,0.0,0.0,60,0.00,CLR,,0.00,0.0,WeatherDisplay:10.37,2013-01-17 23:22:00,
2013-01-17 17:27:00,31.2,19.3,30.43,West,265,0.0,0.0,61,0.00,CLR,,0.00,0.0,WeatherDisplay:10.37,2013-01-17 23:27:00,
2013-01-17 17:32:00,31.1,19.2,30.43,West,265,0.0,0.0,61,0.00,CLR,,0.00,0.0,WeatherDisplay:10.37,2013-01-17 23:32:00,
2013-01-17 17:37:00,31.0,19.1,30.43,West,265,0.0,0.0,61,0.00,CLR,,0.00,0.0,WeatherDisplay:10.37,2013-01-17 23:37:00,
2013-01-17 17:42:00,30.8,19.3,30.43,West,270,2.3,2.3,62,0.00,CLR,,0.00,0.0,WeatherDisplay:10.37,2013-01-17 23:42:00,
2013-01-17 17:47:00,30.7,19.2,30.43,West,269,0.0,0.0,62,0.00,CLR,,0.00,0.0,WeatherDisplay:10.37,2013-01-17 23:47:00,
2013-01-17 17:52:00,30.7,19.2,30.43,West,270,0.0,0.0,62,0.00,CLR,,0.00,0.0,WeatherDisplay:10.37,2013-01-17 23:52:00,
2013-01-17 17:57:00,30.7,19.6,30.43,West,269,2.0,0.0,63,0.00,CLR,,0.00,0.0,WeatherDisplay:10.37,2013-01-17 23:57:00,
2013-01-17 18:02:00,30.6,19.5,30.42,West,269,0.0,0.0,63,0.00,CLR,,0.00,0.0,WeatherDisplay:10.37,2013-01-18 00:02:00,
2013-01-17 18:07:00,30.6,19.5,30.42,West,269,0.0,0.0,63,0.00,CLR,,0.00,0.0,WeatherDisplay:10.37,2013-01-18 00:07:00,
2013-01-17 18:12:00,30.5,19.4,30.42,West,269,0.0,0.0,63,0.00,CLR,,0.00,0.0,WeatherDisplay:10.37,2013-01-18 00:12:00,
2013-01-17 18:17:00,30.4,19.3,30.43,West,270,0.0,0.0,63,0.00,CLR,,0.00,0.0,WeatherDisplay:10.37,2013-01-18 00:17:00,
2013-01-17 18:22:00,30.2,19.1,30.43,West,270,0.0,0.0,63,0.00,CLR,,0.00,0.0,WeatherDisplay:10.37,2013-01-18 00:22:00,
2013-01-17 18:27:00,30.1,19.0,30.43,West,269,0.0,0.0,63,0.00,CLR,,0.00,0.0,WeatherDisplay:10.37,2013-01-18 00:27:00,
2013-01-17 18:32:00,29.8,19.1,30.44,West,270,0.0,0.0,64,0.00,CLR,,0.00,0.0,WeatherDisplay:10.37,2013-01-18 00:32:00,
2013-01-17 18:37:00,29.5,19.2,30.44,West,270,0.0,0.0,65,0.00,CLR,,0.00,0.0,WeatherDisplay:10.37,2013-01-18 00:37:00,
2013-01-17 18:42:00,29.3,19.3,30.44,West,269,0.0,0.0,66,0.00,CLR,,0.00,0.0,WeatherDisplay:10.37,2013-01-18 00:42:00,
2013-01-17 18:47:00,29.0,19.4,30.44,West,269,0.0,0.0,67,0.00,CLR,,0.00,0.0,WeatherDisplay:10.37,2013-01-18 00:47:00,
2013-01-17 18:52:00,28.8,19.2,30.44,West,269,0.0,0.0,67,0.00,CLR,,0.00,0.0,WeatherDisplay:10.37,2013-01-18 00:52:00,
2013-01-17 18:57:00,28.6,19.0,30.44,West,269,0.0,0.0,67,0.00,CLR,,0.00,0.0,WeatherDisplay:10.37,2013-01-18 00:57:00,
2013-01-17 19:02:00,28.4,19.2,30.45,West,270,0.0,0.0,68,0.00,CLR,,0.00,0.0,WeatherDisplay:10.37,2013-01-18 01:02:00,
2013-01-17 19:07:00,28.2,19.0,30.45,West,270,0.0,0.0,68,0.00,CLR,,0.00,0.0,WeatherDisplay:10.37,2013-01-18 01:07:00,
2013-01-17 19:12:00,28.0,18.8,30.45,West,270,1.2,1.2,68,0.00,CLR,,0.00,0.0,WeatherDisplay:10.37,2013-01-18 01:12:00,
2013-01-17 19:17:00,27.6,18.8,30.45,West,270,0.0,0.0,69,0.00,CLR,,0.00,0.0,WeatherDisplay:10.37,2013-01-18 01:17:00,
2013-01-17 19:22:00,27.5,19.0,30.46,West,270,0.0,0.0,70,0.00,CLR,,0.00,0.0,WeatherDisplay:10.37,2013-01-18 01:22:00,
2013-01-17 19:27:00,27.2,18.7,30.46,West,269,0.0,0.0,70,0.00,CLR,,0.00,0.0,WeatherDisplay:10.37,2013-01-18 01:27:00,
2013-01-17 19:32:00,27.0,18.5,30.45,West,270,0.0,0.0,70,0.00,CLR,,0.00,0.0,WeatherDisplay:10.37,2013-01-18 01:32:00,
2013-01-17 19:37:00,26.8,18.7,30.46,West,270,0.0,0.0,71,0.00,CLR,,0.00,0.0,WeatherDisplay:10.37,2013-01-18 01:37:00,
2013-01-17 19:42:00,26.6,18.5,30.46,West,269,0.0,0.0,71,0.00,CLR,,0.00,0.0,WeatherDisplay:10.37,2013-01-18 01:42:00,
2013-01-17 19:47:00,26.4,18.3,30.46,West,270,0.0,0.0,71,0.00,CLR,,0.00,0.0,WeatherDisplay:10.37,2013-01-18 01:47:00,
2013-01-17 19:52:00,26.2,18.4,30.46,West,269,0.0,0.0,72,0.00,CLR,,0.00,0.0,WeatherDisplay:10.37,2013-01-18 01:52:00,
2013-01-17 19:57:00,26.2,18.4,30.46,West,270,0.0,0.0,72,0.00,CLR,,0.00,0.0,WeatherDisplay:10.37,2013-01-18 01:57:00,
2013-01-17 20:02:00,26.0,18.5,30.46,West,270,0.0,0.0,73,0.00,CLR,,0.00,0.0,WeatherDisplay:10.37,2013-01-18 02:02:00,
2013-01-17 20:07:00,25.8,18.3,30.45,West,269,0.0,0.0,73,0.00,CLR,,0.00,0.0,WeatherDisplay:10.37,2013-01-18 02:07:00,
2013-01-17 20:13:00,25.6,18.1,30.46,West,270,0.0,0.0,73,0.00,CLR,,0.00,0.0,WeatherDisplay:10.37,2013-01-18 02:13:00,
2013-01-17 20:18:00,25.4,17.9,30.46,West,269,0.0,0.0,73,0.00,CLR,,0.00,0.0,WeatherDisplay:10.37,2013-01-18 02:18:00,
2013-01-17 20:23:00,25.3,18.2,30.46,West,270,0.0,0.0,74,0.00,CLR,,0.00,0.0,WeatherDisplay:10.37,2013-01-18 02:23:00,
2013-01-17 20:28:00,25.2,18.1,30.46,West,269,0.0,0.0,74,0.00,CLR,,0.00,0.0,WeatherDisplay:10.37,2013-01-18 02:28:00,
2013-01-17 20:33:00,25.1,18.0,30.46,West,270,0.0,0.0,74,0.00,CLR,,0.00,0.0,WeatherDisplay:10.37,2013-01-18 02:33:00,
2013-01-17 20:38:00,25.0,17.9,30.46,West,269,0.0,0.0,74,0.00,CLR,,0.00,0.0,WeatherDisplay:10.37,2013-01-18 02:38:00,
2013-01-17 20:43:00,24.8,18.0,30.46,West,270,0.0,0.0,75,0.00,CLR,,0.00,0.0,WeatherDisplay:10.37,2013-01-18 02:43:00,
2013-01-17 20:48:00,24.8,18.0,30.46,West,270,0.0,0.0,75,0.00,CLR,,0.00,0.0,WeatherDisplay:10.37,2013-01-18 02:48:00,
2013-01-17 20:53:00,24.7,18.2,30.46,West,270,0.0,0.0,76,0.00,CLR,,0.00,0.0,WeatherDisplay:10.37,2013-01-18 02:53:00,
2013-01-17 20:58:00,24.6,18.1,30.46,West,270,0.0,0.0,76,0.00,CLR,,0.00,0.0,WeatherDisplay:10.37,2013-01-18 02:58:00,
2013-01-17 21:03:00,24.5,18.0,30.46,West,269,0.0,0.0,76,0.00,CLR,,0.00,0.0,WeatherDisplay:10.37,2013-01-18 03:03:00,
2013-01-17 21:08:00,24.3,17.8,30.46,West,270,0.0,0.0,76,0.00,CLR,,0.00,0.0,WeatherDisplay:10.37,2013-01-18 03:08:00,
2013-01-17 21:13:00,24.2,17.7,30.45,West,270,0.0,0.0,76,0.00,CLR,,0.00,0.0,WeatherDisplay:10.37,2013-01-18 03:13:00,
2013-01-17 21:18:00,24.1,17.9,30.45,West,270,0.0,0.0,77,0.00,CLR,,0.00,0.0,WeatherDisplay:10.37,2013-01-18 03:18:00,
2013-01-17 21:23:00,24.0,17.8,30.45,West,269,0.0,0.0,77,0.00,CLR,,0.00,0.0,WeatherDisplay:10.37,2013-01-18 03:23:00,
2013-01-17 21:28:00,23.9,17.7,30.45,West,269,0.0,0.0,77,0.00,CLR,,0.00,0.0,WeatherDisplay:10.37,2013-01-18 03:28:00,
2013-01-17 21:33:00,23.6,17.7,30.46,West,269,0.0,0.0,78,0.00,CLR,,0.00,0.0,WeatherDisplay:10.37,2013-01-18 03:33:00,
2013-01-17 21:38:00,23.4,17.6,30.45,West,270,0.0,0.0,78,0.00,CLR,,0.00,0.0,WeatherDisplay:10.37,2013-01-18 03:38:00,
2013-01-17 21:43:00,23.3,17.5,30.45,West,270,0.0,0.0,78,0.00,CLR,,0.00,0.0,WeatherDisplay:10.37,2013-01-18 03:43:00,
2013-01-17 21:48:00,23.1,17.6,30.45,West,269,0.0,0.0,79,0.00,CLR,,0.00,0.0,WeatherDisplay:10.37,2013-01-18 03:48:00,
2013-01-17 21:53:00,22.9,17.4,30.45,West,270,0.0,0.0,79,0.00,CLR,,0.00,0.0,WeatherDisplay:10.37,2013-01-18 03:53:00,
2013-01-17 21:58:00,22.8,17.6,30.45,West,269,0.0,0.0,80,0.00,CLR,,0.00,0.0,WeatherDisplay:10.37,2013-01-18 03:58:00,
2013-01-17 22:03:00,22.7,17.5,30.45,West,269,0.0,0.0,80,0.00,CLR,,0.00,0.0,WeatherDisplay:10.37,2013-01-18 04:03:00,
2013-01-17 22:08:00,22.6,17.4,30.45,West,270,0.0,0.0,80,0.00,CLR,,0.00,0.0,WeatherDisplay:10.37,2013-01-18 04:08:00,
2013-01-17 22:13:00,22.5,17.5,30.45,West,270,0.0,0.0,81,0.00,CLR,,0.00,0.0,WeatherDisplay:10.37,2013-01-18 04:13:00,
2013-01-17 22:18:00,22.4,17.5,30.45,West,269,0.0,0.0,81,0.00,CLR,,0.00,0.0,WeatherDisplay:10.37,2013-01-18 04:18:00,
2013-01-17 22:23:00,22.3,17.6,30.45,West,270,0.0,0.0,82,0.00,CLR,,0.00,0.0,WeatherDisplay:10.37,2013-01-18 04:23:00,
2013-01-17 22:28:00,22.2,17.5,30.45,West,269,0.0,0.0,82,0.00,CLR,,0.00,0.0,WeatherDisplay:10.37,2013-01-18 04:28:00,
2013-01-17 22:33:00,22.1,17.4,30.45,West,269,0.0,0.0,82,0.00,CLR,,0.00,0.0,WeatherDisplay:10.37,2013-01-18 04:33:00,
2013-01-17 22:38:00,21.9,17.2,30.45,West,270,0.0,0.0,82,0.00,CLR,,0.00,0.0,WeatherDisplay:10.37,2013-01-18 04:38:00,
2013-01-17 22:43:00,21.8,17.2,30.45,West,269,0.0,0.0,82,0.00,CLR,,0.00,0.0,WeatherDisplay:10.37,2013-01-18 04:43:00,
2013-01-17 22:48:00,21.7,17.1,30.45,West,270,0.0,0.0,82,0.00,CLR,,0.00,0.0,WeatherDisplay:10.37,2013-01-18 04:48:00,
2013-01-17 22:53:00,21.6,17.0,30.45,West,270,0.0,0.0,82,0.00,CLR,,0.00,0.0,WeatherDisplay:10.37,2013-01-18 04:53:00,
2013-01-17 22:58:00,21.5,17.1,30.45,West,270,0.0,0.0,83,0.00,CLR,,0.00,0.0,WeatherDisplay:10.37,2013-01-18 04:58:00,
2013-01-17 23:00:00,21.5,17.1,30.45,West,270,0.0,0.0,83,0.00,CLR,,0.00,0.0,WeatherDisplay:10.37,2013-01-18 05:00:00,
2013-01-17 23:01:00,21.5,17.1,30.45,West,270,0.0,0.0,83,0.00,CLR,,0.00,0.0,WeatherDisplay:10.37,2013-01-18 05:01:00,
2013-01-17 23:02:00,21.5,17.1,30.45,West,270,0.0,0.0,83,0.00,CLR,,0.00,0.0,WeatherDisplay:10.37,2013-01-18 05:02:00,
2013-01-17 23:07:00,21.4,17.0,30.45,West,270,0.0,0.0,83,0.00,CLR,,0.00,0.0,WeatherDisplay:10.37,2013-01-18 05:07:00,
2013-01-17 23:13:00,21.3,16.9,30.46,West,269,0.0,0.0,83,0.00,CLR,,0.00,0.0,WeatherDisplay:10.37,2013-01-18 05:13:00,
2013-01-17 23:18:00,21.3,16.9,30.46,West,270,0.0,0.0,83,0.00,CLR,,0.00,0.0,WeatherDisplay:10.37,2013-01-18 05:18:00,
2013-01-17 23:23:00,21.3,16.9,30.46,West,270,0.0,0.0,83,0.00,CLR,,0.00,0.0,WeatherDisplay:10.37,2013-01-18 05:23:00,
2013-01-17 23:28:00,21.2,16.8,30.45,West,269,0.0,0.0,83,0.00,CLR,,0.00,0.0,WeatherDisplay:10.37,2013-01-18 05:28:00,
2013-01-17 23:33:00,21.2,17.1,30.45,West,270,0.0,0.0,84,0.00,CLR,,0.00,0.0,WeatherDisplay:10.37,2013-01-18 05:33:00,
2013-01-17 23:38:00,21.1,17.0,30.45,West,269,0.0,0.0,84,0.00,CLR,,0.00,0.0,WeatherDisplay:10.37,2013-01-18 05:38:00,
2013-01-17 23:43:00,21.1,17.0,30.45,West,270,0.0,0.0,84,0.00,CLR,,0.00,0.0,WeatherDisplay:10.37,2013-01-18 05:43:00,
2013-01-17 23:48:00,21.1,17.0,30.45,West,270,0.0,0.0,84,0.00,CLR,,0.00,0.0,WeatherDisplay:10.37,2013-01-18 05:48:00,
2013-01-17 23:53:00,21.1,17.0,30.45,West,269,0.0,0.0,84,0.00,CLR,,0.00,0.0,WeatherDisplay:10.37,2013-01-18 05:53:00,
2013-01-17 23:58:00,21.1,17.0,30.45,West,270,0.0,0.0,84,0.00,CLR,,0.00,0.0,WeatherDisplay:10.37,2013-01-18 05:58:00,